RYR6RJ LKPR-LIPH

Flight info

Callsign RYR6RJ
Flight time 0h 53m
Altitude 35000
Route DOBEN DCT RUDAP P31 DOSEL DCT EBEDA DCT BADVI DCT BERAS M736 LIZUM N503 LIKDA DCT BAKOR DCT VESAL N503 VIC
Aircraft B738/M-SDE2E3FGHIRWXY/LB1

Departure

Time 2026-04-26 15:23
Airport Václav Havel Airport Prague (LKPR)

Arrival

Time 2026-04-26 16:17
Airport Treviso Airport (LIPH)
Time Latitude Longitude Altitude Speed Heading
2026-04-26 14:56 50.10389 14.26689 1169 ft 0 kts 34°
2026-04-26 15:12 50.10375 14.26675 1169 ft 3 kts 33°
2026-04-26 15:12 50.10357 14.26661 1169 ft 3 kts 356°
2026-04-26 15:13 50.10348 14.26670 1169 ft 3 kts 304°
2026-04-26 15:13 50.10335 14.26699 1170 ft 3 kts 304°
2026-04-26 15:13 50.10326 14.26721 1168 ft 0 kts 304°
2026-04-26 15:16 50.10331 14.26708 1169 ft 4 kts 304°
2026-04-26 15:16 50.10349 14.26663 1169 ft 5 kts 292°
2026-04-26 15:16 50.10330 14.26607 1171 ft 10 kts 219°
2026-04-26 15:16 50.10259 14.26533 1174 ft 13 kts 200°
2026-04-26 15:17 50.10216 14.26557 1176 ft 6 kts 133°
2026-04-26 15:17 50.10200 14.26591 1175 ft 6 kts 126°
2026-04-26 15:17 50.10155 14.26687 1178 ft 9 kts 127°
2026-04-26 15:17 50.10116 14.26767 1182 ft 9 kts 127°
2026-04-26 15:18 50.10073 14.26857 1187 ft 12 kts 127°
2026-04-26 15:18 50.10023 14.26961 1194 ft 12 kts 126°
2026-04-26 15:18 50.09964 14.27084 1198 ft 19 kts 127°
2026-04-26 15:18 50.09870 14.27276 1201 ft 23 kts 127°
2026-04-26 15:19 50.09766 14.27445 1204 ft 22 kts 133°
2026-04-26 15:19 50.09659 14.27610 1207 ft 21 kts 136°
2026-04-26 15:19 50.09553 14.27773 1211 ft 21 kts 136°
2026-04-26 15:19 50.09448 14.27932 1215 ft 21 kts 134°
2026-04-26 15:20 50.09347 14.28090 1214 ft 20 kts 135°
2026-04-26 15:20 50.09249 14.28240 1212 ft 19 kts 138°
2026-04-26 15:20 50.09155 14.28269 1210 ft 10 kts 206°
2026-04-26 15:20 50.09139 14.28253 1210 ft 0 kts 213°
2026-04-26 15:21 50.09110 14.28220 1210 ft 9 kts 216°
2026-04-26 15:22 50.09062 14.28155 1208 ft 5 kts 251°
2026-04-26 15:22 50.09068 14.28124 1207 ft 3 kts 296°
2026-04-26 15:22 50.09070 14.28119 1207 ft 0 kts 305°
2026-04-26 15:23 50.09144 14.27963 1210 ft 56 kts 307°
2026-04-26 15:23 50.09563 14.27101 1206 ft 140 kts 307°
2026-04-26 15:23 50.10281 14.25621 1439 ft 192 kts 310°
2026-04-26 15:23 50.11156 14.23894 2345 ft 212 kts 310°
2026-04-26 15:24 50.12095 14.22019 3229 ft 226 kts 310°
2026-04-26 15:24 50.13040 14.20005 4195 ft 236 kts 306°
2026-04-26 15:24 50.13981 14.17891 5057 ft 243 kts 306°
2026-04-26 15:24 50.14986 14.15754 5012 ft 245 kts 309°
2026-04-26 15:25 50.15943 14.13546 4977 ft 244 kts 292°
2026-04-26 15:25 50.16131 14.11796 5117 ft 246 kts 268°
2026-04-26 15:25 50.15357 14.08447 5861 ft 260 kts 235°
2026-04-26 15:25 50.14008 14.06464 6547 ft 274 kts 217°
2026-04-26 15:26 50.12400 14.04882 7423 ft 277 kts 212°
2026-04-26 15:26 50.10687 14.03358 8231 ft 284 kts 212°
2026-04-26 15:26 50.08953 14.01846 9072 ft 288 kts 212°
2026-04-26 15:26 50.07198 14.00311 9922 ft 291 kts 212°
2026-04-26 15:27 50.05416 13.98742 10632 ft 299 kts 213°
2026-04-26 15:27 50.03534 13.97068 10861 ft 324 kts 213°
2026-04-26 15:27 50.01531 13.95276 11048 ft 348 kts 213°
2026-04-26 15:27 49.99333 13.93302 11255 ft 369 kts 212°
2026-04-26 15:28 49.97106 13.91303 11785 ft 378 kts 213°
2026-04-26 15:28 49.94824 13.89256 12516 ft 381 kts 213°
2026-04-26 15:28 49.92518 13.87189 13230 ft 384 kts 213°
2026-04-26 15:28 49.90196 13.85105 13917 ft 388 kts 213°
2026-04-26 15:29 49.87839 13.82987 14531 ft 392 kts 213°
2026-04-26 15:29 49.85471 13.80862 15178 ft 395 kts 213°
2026-04-26 15:29 49.80679 13.76571 16471 ft 400 kts 213°
2026-04-26 15:30 49.75809 13.72218 17700 ft 407 kts 213°
2026-04-26 15:30 49.73350 13.70023 18309 ft 410 kts 213°
2026-04-26 15:30 49.70868 13.67810 18845 ft 414 kts 213°
2026-04-26 15:31 49.68409 13.65620 19402 ft 415 kts 213°
2026-04-26 15:31 49.63367 13.61140 20495 ft 419 kts 213°
2026-04-26 15:31 49.60835 13.58894 21011 ft 422 kts 213°
2026-04-26 15:32 49.57414 13.55863 21685 ft 425 kts 212°
2026-04-26 15:32 49.53129 13.52074 22527 ft 429 kts 212°
2026-04-26 15:32 49.50533 13.49781 23006 ft 431 kts 212°
2026-04-26 15:33 49.47925 13.47482 23468 ft 433 kts 212°
2026-04-26 15:33 49.45293 13.45164 23918 ft 435 kts 212°
2026-04-26 15:33 49.42659 13.42847 24308 ft 437 kts 212°
2026-04-26 15:33 49.40021 13.40530 24715 ft 438 kts 212°
2026-04-26 15:34 49.37364 13.38199 25107 ft 440 kts 212°
2026-04-26 15:34 49.34737 13.35896 25472 ft 441 kts 212°
2026-04-26 15:34 49.32066 13.33557 25821 ft 443 kts 212°
2026-04-26 15:34 49.29345 13.31178 26187 ft 445 kts 212°
2026-04-26 15:35 49.26684 13.28853 26521 ft 447 kts 212°
2026-04-26 15:35 49.23977 13.26501 26861 ft 449 kts 212°
2026-04-26 15:35 49.21203 13.24277 27190 ft 451 kts 209°
2026-04-26 15:35 49.18368 13.22156 27501 ft 454 kts 209°
2026-04-26 15:36 49.15524 13.20040 27777 ft 456 kts 209°
2026-04-26 15:36 49.12669 13.17890 28072 ft 457 kts 210°
2026-04-26 15:36 49.09811 13.15737 28373 ft 459 kts 209°
2026-04-26 15:36 49.06973 13.13628 28721 ft 459 kts 209°
2026-04-26 15:37 49.04069 13.11485 29175 ft 457 kts 209°
2026-04-26 15:37 49.02180 13.10093 29507 ft 455 kts 209°
2026-04-26 15:37 48.99335 13.07998 29993 ft 452 kts 209°
2026-04-26 15:37 48.96509 13.05916 30374 ft 452 kts 209°
2026-04-26 15:38 48.93678 13.03829 30664 ft 452 kts 210°
2026-04-26 15:38 48.90853 13.01748 31015 ft 450 kts 210°
2026-04-26 15:38 48.88042 12.99680 31436 ft 447 kts 210°
2026-04-26 15:38 48.85244 12.97624 31833 ft 445 kts 210°
2026-04-26 15:39 48.82458 12.95579 32190 ft 444 kts 210°
2026-04-26 15:39 48.79670 12.93534 32501 ft 443 kts 210°
2026-04-26 15:39 48.76907 12.91511 32829 ft 442 kts 210°
2026-04-26 15:39 48.75074 12.90151 33061 ft 440 kts 212°
2026-04-26 15:40 48.71666 12.86812 33484 ft 433 kts 223°
2026-04-26 15:40 48.69445 12.83754 33811 ft 430 kts 226°
2026-04-26 15:40 48.67279 12.80652 34116 ft 429 kts 226°
2026-04-26 15:40 48.65131 12.77598 34380 ft 428 kts 226°
2026-04-26 15:41 48.62945 12.74536 34580 ft 429 kts 226°
2026-04-26 15:41 48.60736 12.71473 34777 ft 430 kts 226°
2026-04-26 15:41 48.58535 12.68427 34990 ft 430 kts 226°
2026-04-26 15:41 48.56337 12.65372 35232 ft 430 kts 226°
2026-04-26 15:42 48.54136 12.62307 35426 ft 430 kts 226°
2026-04-26 15:42 48.51933 12.59242 35604 ft 431 kts 226°
2026-04-26 15:42 48.49724 12.56172 35808 ft 431 kts 226°
2026-04-26 15:42 48.47516 12.53108 36023 ft 431 kts 225°
2026-04-26 15:43 48.45339 12.50094 36189 ft 432 kts 225°
2026-04-26 15:43 48.43111 12.47024 36191 ft 435 kts 225°
2026-04-26 15:44 48.36189 12.38206 36196 ft 432 kts 223°
2026-04-26 15:44 48.29296 12.29516 36206 ft 432 kts 223°
2026-04-26 15:45 48.22381 12.20754 36196 ft 434 kts 223°
2026-04-26 15:46 48.15101 12.12701 36195 ft 437 kts 210°
2026-04-26 15:46 48.10333 12.10107 36202 ft 440 kts 199°
2026-04-26 15:47 48.00505 12.06071 36178 ft 441 kts 199°
2026-04-26 15:48 47.94583 12.03586 36187 ft 441 kts 199°
2026-04-26 15:48 47.88669 12.01078 36176 ft 442 kts 199°
2026-04-26 15:49 47.82747 11.98570 36172 ft 443 kts 199°
2026-04-26 15:49 47.76810 11.96063 36163 ft 443 kts 199°
2026-04-26 15:50 47.70911 11.93536 36165 ft 444 kts 201°
2026-04-26 15:50 47.65033 11.90749 36160 ft 445 kts 201°
2026-04-26 15:51 47.59129 11.87913 36147 ft 445 kts 201°
2026-04-26 15:51 47.53216 11.85113 36139 ft 446 kts 201°
2026-04-26 15:52 47.47301 11.82337 36152 ft 445 kts 201°
2026-04-26 15:52 47.41444 11.79594 36149 ft 445 kts 201°
2026-04-26 15:53 47.35460 11.77059 36128 ft 448 kts 194°
2026-04-26 15:53 47.32319 11.76571 35609 ft 458 kts 185°
2026-04-26 15:53 47.29133 11.76459 34976 ft 458 kts 185°
2026-04-26 15:53 47.25951 11.76367 34353 ft 457 kts 185°
2026-04-26 15:54 47.22763 11.76223 33620 ft 457 kts 186°
2026-04-26 15:54 47.19583 11.76039 32874 ft 457 kts 186°
2026-04-26 15:54 47.16398 11.75848 32164 ft 457 kts 186°
2026-04-26 15:54 47.13218 11.75680 31416 ft 458 kts 185°
2026-04-26 15:55 47.10067 11.75522 30674 ft 459 kts 185°
2026-04-26 15:55 47.06873 11.75363 29880 ft 460 kts 185°
2026-04-26 15:55 47.03681 11.75203 29276 ft 456 kts 185°
2026-04-26 15:55 47.00529 11.75041 28714 ft 450 kts 185°
2026-04-26 15:56 46.97421 11.74876 28152 ft 445 kts 185°
2026-04-26 15:56 46.94343 11.74712 27618 ft 439 kts 185°
2026-04-26 15:56 46.91295 11.74546 27055 ft 434 kts 185°
2026-04-26 15:56 46.88368 11.74385 26573 ft 429 kts 185°
2026-04-26 15:57 46.85415 11.74223 26030 ft 427 kts 185°
2026-04-26 15:57 46.82456 11.74062 25508 ft 424 kts 185°
2026-04-26 15:57 46.79516 11.73902 24971 ft 421 kts 184°
2026-04-26 15:57 46.77576 11.73797 24631 ft 419 kts 184°
2026-04-26 15:58 46.73697 11.73588 23941 ft 415 kts 184°
2026-04-26 15:58 46.70815 11.73433 23379 ft 413 kts 184°
2026-04-26 15:58 46.68253 11.73296 22847 ft 410 kts 184°
2026-04-26 15:58 46.65402 11.73142 22295 ft 407 kts 184°
2026-04-26 15:59 46.62591 11.72991 21761 ft 404 kts 184°
2026-04-26 15:59 46.59796 11.72840 21289 ft 399 kts 184°
2026-04-26 15:59 46.57026 11.72679 20815 ft 394 kts 184°
2026-04-26 15:59 46.54336 11.72516 20332 ft 391 kts 184°
2026-04-26 16:00 46.51584 11.72351 19848 ft 390 kts 184°
2026-04-26 16:00 46.48907 11.72190 19341 ft 388 kts 184°
2026-04-26 16:00 46.46221 11.72029 18849 ft 386 kts 184°
2026-04-26 16:00 46.43548 11.71870 18364 ft 384 kts 184°
2026-04-26 16:01 46.40880 11.71712 17790 ft 383 kts 184°
2026-04-26 16:01 46.38221 11.71556 17277 ft 380 kts 184°
2026-04-26 16:01 46.35586 11.71412 16771 ft 378 kts 184°
2026-04-26 16:01 46.32964 11.71277 16293 ft 376 kts 184°
2026-04-26 16:02 46.30358 11.71141 15795 ft 374 kts 184°
2026-04-26 16:02 46.27766 11.71001 15313 ft 371 kts 183°
2026-04-26 16:02 46.25194 11.70864 14850 ft 370 kts 183°
2026-04-26 16:02 46.23490 11.70776 14545 ft 368 kts 183°
2026-04-26 16:03 46.20071 11.70598 13926 ft 366 kts 183°
2026-04-26 16:03 46.17528 11.70465 13393 ft 365 kts 183°
2026-04-26 16:03 46.14984 11.70330 12879 ft 363 kts 183°
2026-04-26 16:03 46.12468 11.70198 12398 ft 360 kts 183°
2026-04-26 16:04 46.10008 11.70070 11933 ft 357 kts 183°
2026-04-26 16:04 46.07539 11.69938 11499 ft 355 kts 183°
2026-04-26 16:04 46.05076 11.69808 11101 ft 351 kts 183°
2026-04-26 16:04 46.02667 11.69681 10951 ft 340 kts 183°
2026-04-26 16:05 46.00340 11.69557 10791 ft 330 kts 183°
2026-04-26 16:05 45.98081 11.69438 10635 ft 321 kts 182°
2026-04-26 16:05 45.95878 11.69324 10520 ft 311 kts 183°
2026-04-26 16:05 45.93742 11.69210 10366 ft 303 kts 182°
2026-04-26 16:06 45.91663 11.69099 10256 ft 294 kts 182°
2026-04-26 16:06 45.89640 11.68991 10095 ft 288 kts 182°
2026-04-26 16:06 45.87633 11.68882 9788 ft 288 kts 182°
2026-04-26 16:06 45.85680 11.68778 9490 ft 288 kts 182°
2026-04-26 16:07 45.83687 11.68670 9188 ft 285 kts 182°
2026-04-26 16:07 45.81737 11.68564 8904 ft 284 kts 182°
2026-04-26 16:07 45.79738 11.68456 8608 ft 283 kts 182°
2026-04-26 16:07 45.77771 11.68351 8325 ft 281 kts 182°
2026-04-26 16:08 45.75818 11.68247 8032 ft 280 kts 182°
2026-04-26 16:08 45.74538 11.68178 7851 ft 279 kts 182°
2026-04-26 16:08 45.71939 11.68039 7461 ft 277 kts 182°
2026-04-26 16:08 45.70054 11.67939 7249 ft 274 kts 182°
2026-04-26 16:09 45.68147 11.67837 6927 ft 274 kts 182°
2026-04-26 16:09 45.66245 11.67736 6650 ft 272 kts 182°
2026-04-26 16:09 45.64357 11.67726 6294 ft 275 kts 170°
2026-04-26 16:09 45.62586 11.68734 5987 ft 276 kts 146°
2026-04-26 16:10 45.61051 11.70387 5690 ft 277 kts 142°
2026-04-26 16:10 45.59551 11.72058 5593 ft 268 kts 142°
2026-04-26 16:10 45.58073 11.73685 5172 ft 273 kts 142°
2026-04-26 16:10 45.56591 11.75301 5062 ft 264 kts 142°
2026-04-26 16:11 45.55229 11.77116 4640 ft 268 kts 123°
2026-04-26 16:11 45.54573 11.79489 4358 ft 265 kts 96°
2026-04-26 16:11 45.54754 11.82135 4124 ft 263 kts 74°
2026-04-26 16:11 45.55363 11.84550 4020 ft 254 kts 68°
2026-04-26 16:12 45.56019 11.86837 3975 ft 243 kts 68°
2026-04-26 16:12 45.56638 11.89029 3964 ft 232 kts 69°
2026-04-26 16:12 45.57876 11.93075 3693 ft 221 kts 69°
2026-04-26 16:13 45.58433 11.95136 3407 ft 223 kts 70°
2026-04-26 16:13 45.58978 11.97213 3113 ft 225 kts 70°
2026-04-26 16:13 45.59529 11.99310 2809 ft 224 kts 70°
2026-04-26 16:13 45.60072 12.01367 2510 ft 220 kts 70°
2026-04-26 16:14 45.60596 12.03351 2237 ft 213 kts 70°
2026-04-26 16:14 45.61109 12.05291 1956 ft 204 kts 70°
2026-04-26 16:14 45.62057 12.08874 1440 ft 183 kts 70°
2026-04-26 16:15 45.62492 12.10518 1189 ft 167 kts 71°
2026-04-26 16:15 45.62884 12.11992 1015 ft 148 kts 71°
2026-04-26 16:15 45.63248 12.13361 812 ft 147 kts 70°
2026-04-26 16:16 45.63949 12.16009 383 ft 137 kts 71°
2026-04-26 16:16 45.64293 12.17273 192 ft 134 kts 72°
2026-04-26 16:16 45.64613 12.18489 65 ft 125 kts 71°
2026-04-26 16:16 45.64865 12.19461 62 ft 84 kts 69°
2026-04-26 16:17 45.65021 12.20046 57 ft 41 kts 66°
2026-04-26 16:17 45.65129 12.20218 57 ft 18 kts 26°
2026-04-26 16:17 45.65231 12.20285 60 ft 15 kts 25°
2026-04-26 16:17 45.65300 12.20376 60 ft 11 kts 57°
2026-04-26 16:18 45.65322 12.20443 58 ft 2 kts 43°
2026-04-26 16:18 45.65352 12.20445 61 ft 2 kts 348°
2026-04-26 16:19 45.65371 12.20436 60 ft 1 kts 341°
2026-04-26 16:19 45.65376 12.20433 55 ft 1 kts 339°
2026-04-26 16:19 45.65379 12.20432 56 ft 0 kts 339°